Location: Eaton Estates
(41.3089°N, 82.0057°W)
Time: 16:52:21
(UTC+00:00)

CZ-2D R/B - Pass Details

Date: 17 June 2021
Orbit: 791 x 845 km, 98.7° (Epoch: 02 August)

Event Time Altitude Azimuth Distance (km) Brightness Sun altitude
Rises 06:02:26 0° 27° (NNE) 3,300 6.5 -24.8°
Reaches altitude 10° 06:05:15 10° 42° (NE) 2,364 5.3 -24.8°
Maximum altitude 06:09:21 23° 94° (E) 1,625 3.7 -24.6°
Enters shadow 06:10:34 21° 114° (ESE) 1,702 3.6 -24.6°
